Weather History for KOEO - December, 2012

Change the Weather History Date:

Thursday, December 6, 2012

  Actual Average (KMSP) Record (KMSP)
Temperature  
Mean Temperature 35 °F 23 °F  
Max Temperature 44 °F 30 °F 63 °F (1939)
Min Temperature 26 °F 16 °F -19 °F (1972)
Degree Days  
Heating Degree Days 30 42  
Month to date heating degree days 246  
Since 1 July heating degree days 1865  
Cooling Degree Days 0 0  
Month to date cooling degree days 0  
Year to date cooling degree days 753  
Moisture  
Dew Point 29 °F    
Average Humidity 72    
Maximum Humidity 86    
Minimum Humidity 56    
Precipitation  
Precipitation 0.00 in 0.04 in 0.53 in (1935)
Month to date precipitation 0.26  
Year to date precipitation 29.71  
Snow  
Snow 0.00 in 0.40 in 4.40 in (1969)
Month to date snowfall 2.4  
Since 1 July snowfall 12.3  
Snow Depth -    
Sea Level Pressure  
Sea Level Pressure 29.89 in    
Wind  
Wind Speed 13 mph (West)    
Max Wind Speed 23 mph    
Max Gust Speed 28 mph    
Visibility 10 miles    
Events      
T = Trace of Precipitation, MM = Missing Value Source: NWS Daily Summary

Daily Weather History Graph

Daily Weather History Graph

Search for Another Location

Airport or City:

Trip Planner

Search our weather history database for the weather conditions in past years. The results will help you decide how hot, cold, wet, or windy it might be!

Date:

Astronomy

Dec. 06, 2012 Rise Set
Actual Time 7:35 AM CST 4:28 PM CST
Civil Twilight 7:02 AM CST 5:01 PM CST
Nautical Twilight 6:24 AM CST 5:39 PM CST
Astronomical Twilight 5:49 AM CST 6:14 PM CST
Moon No Moon Rise 12:12 PM CST (12/6)
Length of Visible Light 9h 59m
Length of Day
8h 52m
Waning Gibbous, 49% of the Moon is Illuminated
Dec 6
Waning Gibbous
Dec 13
New
Dec 19
First Quarter
Dec 28
Full
Jan 4
Last Quarter

Hourly Weather History & Observations

Time (CST) Temp. Windchill Dew Point Humidity Pressure Visibility Wind Dir Wind Speed Gust Speed Precip Events Conditions
12:15 AM 37.4 °F 27.8 °F 23.0 °F 56% 29.91 in 10.0 mi SSE 17.3 mph 25.3 mph N/A   Overcast
12:35 AM 37.4 °F 28.5 °F 23.0 °F 56% 29.90 in 10.0 mi SSE 15.0 mph 23.0 mph N/A   Overcast
12:55 AM 37.4 °F 27.5 °F 23.0 °F 56% 29.89 in 10.0 mi SSE 18.4 mph 25.3 mph N/A   Overcast
1:15 AM 37.4 °F 26.9 °F 24.8 °F 60% 29.87 in 10.0 mi SSE 20.7 mph 26.5 mph N/A   Overcast
1:35 AM 37.4 °F 26.4 °F 24.8 °F 60% 29.87 in 10.0 mi SSE 23.0 mph 27.6 mph N/A   Overcast
1:55 AM 37.4 °F 28.2 °F 26.6 °F 65% 29.87 in 10.0 mi SSE 16.1 mph 24.2 mph N/A   Overcast
2:15 AM 37.4 °F 27.8 °F 26.6 °F 65% 29.86 in 10.0 mi SSE 17.3 mph 21.9 mph N/A   Overcast
2:35 AM 39.2 °F 30.5 °F 26.6 °F 61% 29.85 in 10.0 mi SSE 16.1 mph 20.7 mph N/A   Overcast
2:55 AM 39.2 °F 31.2 °F 28.4 °F 65% 29.85 in 10.0 mi SSE 13.8 mph 21.9 mph N/A   Overcast
7:35 AM 41.0 °F 33.5 °F 35.6 °F 81% 29.79 in 10.0 mi South 13.8 mph 19.6 mph N/A   Scattered Clouds
7:55 AM 41.0 °F 33.9 °F 35.6 °F 81% 29.78 in 10.0 mi South 12.7 mph 23.0 mph N/A   Clear
8:15 AM 41.0 °F 34.3 °F 35.6 °F 81% 29.79 in 10.0 mi South 11.5 mph 19.6 mph N/A   Scattered Clouds
8:35 AM 41.0 °F 34.3 °F 35.6 °F 81% 29.80 in 10.0 mi SSW 11.5 mph - N/A   Overcast
8:55 AM 41.0 °F 34.3 °F 35.6 °F 81% 29.80 in 10.0 mi SSW 11.5 mph - N/A   Overcast
9:15 AM 41.0 °F 35.2 °F 35.6 °F 81% 29.81 in 10.0 mi SSW 9.2 mph - N/A   Overcast
9:35 AM 41.0 °F 36.4 °F 35.6 °F 81% 29.81 in 10.0 mi SSW 6.9 mph - N/A   Scattered Clouds
9:55 AM 42.8 °F 37.0 °F 37.4 °F 81% 29.81 in 10.0 mi SW 10.4 mph - N/A   Clear
10:15 AM 42.8 °F 38.0 °F 35.6 °F 76% 29.81 in 10.0 mi SW 8.1 mph - N/A   Clear
10:35 AM 42.8 °F 37.0 °F 33.8 °F 70% 29.82 in 10.0 mi West 10.4 mph - N/A   Clear
10:55 AM 44.6 °F 38.4 °F 33.8 °F 66% 29.82 in 10.0 mi West 12.7 mph - N/A   Clear
11:15 AM 44.6 °F 37.8 °F 32.0 °F 61% 29.82 in 10.0 mi WNW 15.0 mph - N/A   Clear
11:35 AM 44.6 °F 38.1 °F 32.0 °F 61% 29.82 in 10.0 mi WNW 13.8 mph 20.7 mph N/A   Clear
11:55 AM 42.8 °F 34.8 °F 32.0 °F 66% 29.83 in 10.0 mi West 17.3 mph 21.9 mph N/A   Clear
12:15 PM 42.8 °F 35.8 °F 32.0 °F 66% 29.83 in 10.0 mi West 13.8 mph 19.6 mph N/A   Clear
12:35 PM 42.8 °F 34.8 °F 32.0 °F 66% 29.83 in 10.0 mi West 17.3 mph 21.9 mph N/A   Clear
12:55 PM 42.8 °F 35.4 °F 32.0 °F 66% 29.83 in 10.0 mi WNW 15.0 mph 20.7 mph N/A   Mostly Cloudy
1:15 PM 42.8 °F 35.4 °F 30.2 °F 61% 29.84 in 10.0 mi NW 15.0 mph 20.7 mph N/A   Overcast
1:35 PM 41.0 °F 33.5 °F 30.2 °F 65% 29.85 in 10.0 mi West 13.8 mph - N/A   Mostly Cloudy
1:55 PM 41.0 °F 34.3 °F 30.2 °F 65% 29.85 in 10.0 mi WNW 11.5 mph 20.7 mph N/A   Scattered Clouds
2:15 PM 41.0 °F 33.1 °F 30.2 °F 65% 29.86 in 10.0 mi WNW 15.0 mph 19.6 mph N/A   Clear
2:35 PM 41.0 °F 34.7 °F 30.2 °F 65% 29.86 in 10.0 mi NW 10.4 mph - N/A   Clear
2:55 PM 41.0 °F 34.3 °F 30.2 °F 65% 29.86 in 10.0 mi West 11.5 mph - N/A   Clear
3:15 PM 41.0 °F 34.3 °F 30.2 °F 65% 29.87 in 10.0 mi WNW 11.5 mph 16.1 mph N/A   Clear
3:35 PM 39.2 °F 33.0 °F 28.4 °F 65% 29.88 in 10.0 mi West 9.2 mph - N/A   Clear
3:55 PM 37.4 °F 32.1 °F 30.2 °F 75% 29.88 in 10.0 mi West 6.9 mph - N/A   Clear
4:15 PM 37.4 °F 32.1 °F 30.2 °F 75% 29.89 in 10.0 mi WNW 6.9 mph - N/A   Clear
4:35 PM 37.4 °F 30.3 °F 30.2 °F 75% 29.90 in 10.0 mi WNW 10.4 mph - N/A   Clear
4:55 PM 37.4 °F 32.1 °F 30.2 °F 75% 29.91 in 10.0 mi WNW 6.9 mph - N/A   Clear
5:15 PM 35.6 °F 29.9 °F 28.4 °F 75% 29.91 in 10.0 mi WNW 6.9 mph - N/A   Clear
5:35 PM 35.6 °F 30.7 °F 28.4 °F 75% 29.92 in 10.0 mi WNW 5.8 mph - N/A   Scattered Clouds
5:55 PM 35.6 °F 29.9 °F 28.4 °F 75% 29.92 in 10.0 mi WNW 6.9 mph - N/A   Clear
6:15 PM 35.6 °F 29.9 °F 28.4 °F 75% 29.94 in 10.0 mi WNW 6.9 mph - N/A   Clear
6:35 PM 35.6 °F 28.6 °F 28.4 °F 75% 29.94 in 10.0 mi WNW 9.2 mph - N/A   Clear
6:55 PM 33.8 °F 27.7 °F 28.4 °F 81% 29.95 in 10.0 mi WNW 6.9 mph - N/A   Clear
7:15 PM 33.8 °F 25.3 °F 28.4 °F 81% 29.96 in 10.0 mi WNW 11.5 mph - N/A   Clear
7:35 PM 33.8 °F 24.8 °F 26.6 °F 75% 29.96 in 10.0 mi WNW 12.7 mph 18.4 mph N/A   Clear
7:55 PM 32.0 °F 24.2 °F 26.6 °F 80% 29.97 in 10.0 mi WNW 9.2 mph 17.3 mph N/A   Clear
8:35 PM 32.0 °F 24.2 °F 26.6 °F 80% 29.98 in 10.0 mi NW 9.2 mph - N/A   Clear
8:55 PM 30.2 °F 21.9 °F 26.6 °F 86% 29.99 in 10.0 mi NW 9.2 mph - N/A   Clear
9:15 PM 30.2 °F 23.4 °F 24.8 °F 80% 29.99 in 10.0 mi NW 6.9 mph - N/A   Clear
9:35 PM 30.2 °F 22.6 °F 24.8 °F 80% 29.99 in 10.0 mi NW 8.1 mph - N/A   Clear
9:55 PM 30.2 °F 24.3 °F 23.0 °F 75% 29.99 in 10.0 mi NW 5.8 mph - N/A   Clear
10:15 PM 28.4 °F 22.2 °F 23.0 °F 80% 29.99 in 10.0 mi WNW 5.8 mph - N/A   Clear
10:35 PM 28.4 °F 21.2 °F 23.0 °F 80% 30.00 in 10.0 mi WNW 6.9 mph - N/A   Clear
10:55 PM 28.4 °F 21.2 °F 23.0 °F 80% 30.00 in 10.0 mi WNW 6.9 mph - N/A   Clear
11:15 PM 26.6 °F 18.2 °F 23.0 °F 86% 30.01 in 10.0 mi WNW 8.1 mph - N/A   Clear
11:35 PM 26.6 °F 19.1 °F 23.0 °F 86% 30.01 in 10.0 mi WNW 6.9 mph - N/A   Clear
11:55 PM 26.6 °F 18.2 °F 21.2 °F 80% 30.01 in 10.0 mi West 8.1 mph - N/A   Clear